Content
SEND FEEDBACK

Daily
Averages
Monthly
Summary
United States of America

HEATH, MASSACHUSETTS


Home > North America > United States > Massachusetts
Elevation: 1450 feet     Latitude: 42 40N     Longitude: 072 49W

WEATHER
 
SELECT A DAY
Number of Records: 196,678;   Date Range: 10/28/95 - 7/23/14
 
SHARE

PRINT THIS DATA

[ ← Previous Day ]
WEATHER ALMANAC - FEBRUARY 16, 2014
[ Next Day → ]
[ °C ]   °F
Weather ElementAverageHighLow
Temperature19 °F24.1 °F (12:16 am)12 °F (11:52 pm)
Dewpoint7.6 °F18 °F (12:16 am) (7:00 pm)
Humidity62 %80 % (3:46 am)44 % (1:52 pm)
Barometer29.84 in30.08 in (11:52 pm)29.67 in (12:16 am)
Wind Speed11.1 mph18.4 mph (11:52 am)
Wind Gust28.8 mph (12:52 am)
Weather ElementAverage
Visibility8.3 mi
Wind DirectionWNW (275.7 °)

Weather ElementTotal
Precipitation0.03 in
Heating Degree Days47 (Base 65)
Averaged from 30 records on February 16, 2014
WEATHER CONDITIONS BREAKOUT
WIND DIRECTION BREAKOUT
WEATHER BY HOUR - FEBRUARY 16, 2014
[ °C ]   °F
Local TimeTemperatureDewpointHumidityBarometerVisibilityWind DirectionWind SpeedGust SpeedPrecipitationEventsConditions
12:16 AM24.1 °F18.0 °F77 %29.67 in2.5 miWNW (290°)10.4 mph23.0 mph0.01 inSnowLight Snow
12:25 AM24.1 °F17.1 °F75 %29.67 in4.0 miWNW (290°)10.4 mph23.0 mph0.01 inSnowLight Snow
12:52 AM23.0 °F10.9 °F60 %29.71 in7.0 miWNW (290°)8.1 mph28.8 mph0.01 inOvercast
1:52 AM21.0 °F10.9 °F65 %29.73 in10.0 miWest (280°)13.8 mph19.6 mphScattered Clouds
2:52 AM19.9 °F10.0 °F65 %29.73 in10.0 miWest (270°)10.4 mphOvercast
3:46 AM19.4 °F14.0 °F80 %29.71 in2.5 miWest (280°)9.2 mph0.00 inSnowLight Snow
3:47 AM19.9 °F14.0 °F78 %29.74 in2.5 miWest (280°)9.2 mph0.00 inSnowLight Snow
3:59 AM19.9 °F14.0 °F78 %29.71 in1.5 miWest (270°)10.4 mph0.00 inSnowLight Snow
4:16 AM19.9 °F14.0 °F78 %29.71 in3.0 miWest (280°)6.9 mph0.00 inSnowLight Snow
4:38 AM19.0 °F10.9 °F71 %29.72 in10.0 miWest (270°)9.2 mph0.00 inMostly Cloudy
4:52 AM19.0 °F9.0 °F65 %29.75 in10.0 miWest (280°)11.5 mph0.00 inMostly Cloudy
5:52 AM19.0 °F10.9 °F71 %29.79 in7.0 miWest (280°)11.5 mph25.3 mph0.00 inSnowLight Snow
6:52 AM17.1 °F6.1 °F62 %29.81 in10.0 miWest (270°)16.1 mph23.0 mph0.00 inPartly Cloudy
7:52 AM16.0 °F5.0 °F62 %29.83 in10.0 miWest (260°)12.7 mph23.0 mphPartly Cloudy
8:52 AM17.1 °F3.9 °F56 %29.85 in10.0 miWest (270°)16.1 mphPartly Cloudy
9:52 AM17.1 °F3.0 °F54 %29.88 in10.0 miWest (270°)17.3 mph27.6 mphPartly Cloudy
10:52 AM19.0 °F3.0 °F50 %29.88 in10.0 miWNW (290°)10.4 mph19.6 mphClear
11:52 AM19.9 °F3.0 °F48 %29.88 in10.0 miWest (280°)18.4 mph26.5 mphClear
12:52 PM21.0 °F3.0 °F46 %29.88 in10.0 miWNW (290°)12.7 mph20.7 mphClear
1:52 PM21.9 °F3.0 °F44 %29.88 in10.0 miWest (270°)13.8 mph21.9 mphClear
2:52 PM21.0 °F3.9 °F48 %29.89 in10.0 miWest (270°)12.7 mph25.3 mphClear
3:52 PM21.0 °F5.0 °F50 %29.89 in10.0 miWest (280°)6.9 mphClear
4:52 PM19.9 °F5.0 °F52 %29.90 in10.0 miWest (280°)8.1 mphScattered Clouds
5:52 PM19.0 °F6.1 °F57 %29.93 in10.0 miWest (280°)8.1 mphOvercast
6:52 PM18.0 °F6.1 °F60 %29.95 in10.0 miWest (260°)11.5 mphPartly Cloudy
7:52 PM17.1 °F6.1 °F62 %29.98 in10.0 miWest (270°)10.4 mphPartly Cloudy
8:52 PM16.0 °F6.1 °F65 %30.01 in10.0 miWest (280°)11.5 mph17.3 mphPartly Cloudy
9:52 PM15.1 °F3.9 °F61 %30.03 in10.0 miWest (280°)9.2 mphClear
10:52 PM12.9 °F1.9 °F62 %30.05 in10.0 miWest (260°)8.1 mphClear
11:52 PM12.0 °F0.0 °F59 %30.08 in10.0 miWSW (250°)6.9 mphClear
Hourly data recorded from KAQW, located miles away from Heath, Massachusetts







STORIES FROM OUR PARTNERS